,,PA_Meas_PMT16A,,PR_Meas_QMR101_102,,RH_Meas_QMH101,,SR_Meas_QMS101,,TA_Meas_QMH101,,GenWind,,GenWind,
time,status,PA,status,PR,status,RH,status,SR,status,TA,status,DirAvg,status,SpdAvg,
2014-12-02, 00:00:04,VALID,917.707,VALID,0,VALID,93.0133,VALID,0.107441,VALID,18.7084,VALID,13,VALID,1.44727,
2014-12-02, 00:01:04,VALID,917.654,VALID,0,VALID,92.6931,VALID,0,VALID,18.7293,VALID,27,VALID,1.29102,
2014-12-02, 00:02:04,VALID,917.638,VALID,0,VALID,92.7617,VALID,0,VALID,18.7488,VALID,17,VALID,1.22187,
2014-12-02, 00:03:04,VALID,917.592,VALID,0,VALID,92.8456,VALID,0.107441,VALID,18.7488,VALID,15,VALID,1.20664,
2014-12-02, 00:04:04,VALID,917.608,VALID,0,VALID,92.9904,VALID,0,VALID,18.7098,VALID,13,VALID,0.969141,
2014-12-02, 00:05:04,VALID,917.601,VALID,0,VALID,93.1048,VALID,0,VALID,18.6694,VALID,7,VALID,0.793359,
2014-12-02, 00:06:04,VALID,917.576,VALID,0,VALID,93.0057,VALID,0.107441,VALID,18.6708,VALID,354,VALID,0.832422,
2014-12-02, 00:07:04,VALID,917.564,VALID,0,VALID,92.9371,VALID,0,VALID,18.6889,VALID,359,VALID,1.00352,
2014-12-02, 00:08:04,VALID,917.547,VALID,0,VALID,92.7922,VALID,0,VALID,18.6903,VALID,346,VALID,0.896484,
2014-12-02, 00:09:04,VALID,917.524,VALID,0,VALID,92.4034,VALID,0.107441,VALID,18.6889,VALID,2,VALID,0.641016,
2014-12-02, 00:10:04,VALID,917.51,VALID,0,VALID,92.3272,VALID,0,VALID,18.7279,VALID,5,VALID,0.987891,
2014-12-02, 00:11:04,VALID,917.486,VALID,0,VALID,92.0756,VALID,0.107441,VALID,18.7488,VALID,4,VALID,0.942969,
2014-12-02, 00:12:04,VALID,917.489,VALID,0,VALID,91.9918,VALID,0,VALID,18.7683,VALID,6,VALID,0.571094,
2014-12-02, 00:13:04,VALID,917.441,VALID,0,VALID,91.9308,VALID,0,VALID,18.7474,VALID,351,VALID,1.00664,
2014-12-02, 00:14:04,VALID,917.489,VALID,0,VALID,92.0299,VALID,0,VALID,18.7683,VALID,351,VALID,0.365625,
2014-12-02, 00:15:04,VALID,917.473,VALID,0,VALID,92.2814,VALID,0.107441,VALID,18.7279,VALID,351,VALID,0.352344,
2014-12-02, 00:16:04,VALID,917.435,VALID,0,VALID,92.7084,VALID,0,VALID,18.6889,VALID,351,VALID,0.43125,
2014-12-02, 00:17:04,VALID,917.405,VALID,0,VALID,93.1124,VALID,0,VALID,18.6903,VALID,351,VALID,0.123828,
2014-12-02, 00:18:04,VALID,917.391,VALID,0,VALID,93.2496,VALID,0,VALID,18.6499,VALID,10,VALID,0.405859,
2014-12-02, 00:19:04,VALID,917.387,VALID,0,VALID,93.4021,VALID,0,VALID,18.6109,VALID,2,VALID,0.891016,
2014-12-02, 00:20:04,VALID,917.374,VALID,0,VALID,93.4402,VALID,0.107441,VALID,18.6124,VALID,22,VALID,1.13437,
2014-12-02, 00:21:04,VALID,917.395,VALID,0,VALID,93.3716,VALID,0,VALID,18.5914,VALID,16,VALID,1.21055,
2014-12-02, 00:22:04,VALID,917.416,VALID,0,VALID,93.1505,VALID,0,VALID,18.5914,VALID,22,VALID,0.670703,
2014-12-02, 00:23:04,VALID,917.377,VALID,0,VALID,93.1581,VALID,0,VALID,18.5914,VALID,22,VALID,0.469531,
2014-12-02, 00:24:04,VALID,917.425,VALID,0,VALID,93.2344,VALID,0,VALID,18.6319,VALID,22,VALID,0,
2014-12-02, 00:25:04,VALID,917.42,VALID,0,VALID,93.4783,VALID,0,VALID,18.572,VALID,12,VALID,0.195703,
2014-12-02, 00:26:04,VALID,917.414,VALID,0,VALID,93.6613,VALID,0,VALID,18.5525,VALID,11,VALID,0,
2014-12-02, 00:27:04,VALID,917.422,VALID,0,VALID,93.9205,VALID,0,VALID,18.533,VALID,12,VALID,0.0320312,
2014-12-02, 00:28:04,VALID,917.413,VALID,0,VALID,94.1187,VALID,0,VALID,18.5539,VALID,8,VALID,0.580078,
2014-12-02, 00:29:04,VALID,917.367,VALID,0,VALID,94.0196,VALID,0,VALID,18.5734,VALID,358,VALID,0.746484,
2014-12-02, 00:30:04,VALID,917.342,VALID,0,VALID,93.5546,VALID,0,VALID,18.5929,VALID,359,VALID,1.0582,
2014-12-02, 00:31:04,VALID,917.362,VALID,0,VALID,93.0895,VALID,0,VALID,18.6319,VALID,339,VALID,0.655469,
2014-12-02, 00:32:04,VALID,917.336,VALID,0,VALID,92.6397,VALID,0,VALID,18.6918,VALID,339,VALID,0.855078,
2014-12-02, 00:33:04,VALID,917.301,VALID,0,VALID,92.2891,VALID,0,VALID,18.7113,VALID,341,VALID,0.975391,
2014-12-02, 00:34:04,VALID,917.311,VALID,0,VALID,92.0146,VALID,0,VALID,18.7098,VALID,341,VALID,0.872266,
2014-12-02, 00:35:04,VALID,917.293,VALID,0,VALID,91.7707,VALID,0,VALID,18.7488,VALID,342,VALID,0.878516,
2014-12-02, 00:36:04,VALID,917.308,VALID,0,VALID,91.7173,VALID,0,VALID,18.7488,VALID,342,VALID,0.828125,
2014-12-02, 00:37:04,VALID,917.272,VALID,0,VALID,91.481,VALID,0,VALID,18.7488,VALID,342,VALID,0.86875,
2014-12-02, 00:38:04,VALID,917.291,VALID,0,VALID,91.4124,VALID,0,VALID,18.7878,VALID,342,VALID,0.610547,
2014-12-02, 00:39:04,VALID,917.287,VALID,0,VALID,91.3971,VALID,0,VALID,18.8073,VALID,342,VALID,0.323438,
2014-12-02, 00:40:04,VALID,917.303,VALID,0,VALID,91.3438,VALID,0,VALID,18.7683,VALID,6,VALID,0.698047,
2014-12-02, 00:41:04,VALID,917.284,VALID,0,VALID,91.5725,VALID,0,VALID,18.7892,VALID,7,VALID,0.300391,
2014-12-02, 00:42:04,VALID,917.272,VALID,0,VALID,91.6716,VALID,0,VALID,18.8087,VALID,7,VALID,0.084375,
2014-12-02, 00:43:04,VALID,917.299,VALID,0,VALID,91.7859,VALID,0,VALID,18.7488,VALID,7,VALID,0,
2014-12-02, 00:44:04,VALID,917.292,VALID,0,VALID,91.5191,VALID,0,VALID,18.7488,VALID,7,VALID,0,
2014-12-02, 00:45:04,VALID,917.267,VALID,0,VALID,91.6563,VALID,0,VALID,18.7864,VALID,7,VALID,0,
2014-12-02, 00:46:04,VALID,917.267,VALID,0,VALID,91.4734,VALID,0,VALID,18.8059,VALID,14,VALID,1.00234,
2014-12-02, 00:47:04,VALID,917.277,VALID,0,VALID,91.1074,VALID,0.107441,VALID,18.8254,VALID,13,VALID,1.16797,
2014-12-02, 00:48:04,VALID,917.214,VALID,0,VALID,90.7796,VALID,0,VALID,18.8658,VALID,13,VALID,1.46523,
2014-12-02, 00:49:04,VALID,917.219,VALID,0,VALID,90.5586,VALID,0,VALID,18.9034,VALID,27,VALID,1.23359,
2014-12-02, 00:50:04,VALID,917.209,VALID,0,VALID,90.429,VALID,0,VALID,18.9619,VALID,27,VALID,0.947656,
2014-12-02, 00:51:04,VALID,917.216,VALID,0,VALID,90.9016,VALID,0,VALID,18.9619,VALID,27,VALID,0.822656,
2014-12-02, 00:52:04,VALID,917.157,VALID,0,VALID,91.3133,VALID,0,VALID,18.9438,VALID,22,VALID,0.715625,
2014-12-02, 00:53:04,VALID,917.163,VALID,0,VALID,91.5039,VALID,0,VALID,18.8644,VALID,8,VALID,0.794922,
2014-12-02, 00:54:04,VALID,917.138,VALID,0,VALID,91.6716,VALID,0,VALID,18.8268,VALID,8,VALID,0.816797,
2014-12-02, 00:55:04,VALID,917.106,VALID,0,VALID,91.9994,VALID,0,VALID,18.7864,VALID,9,VALID,1.14258,
2014-12-02, 00:56:04,VALID,917.065,VALID,0,VALID,91.9003,VALID,0,VALID,18.7669,VALID,14,VALID,1.22656,
2014-12-02, 00:57:04,VALID,917.101,VALID,0,VALID,91.2828,VALID,0,VALID,18.8059,VALID,351,VALID,0.670313,
2014-12-02, 00:58:04,VALID,917.062,VALID,0,VALID,90.9092,VALID,0.107441,VALID,18.8644,VALID,326,VALID,0.955859,
2014-12-02, 00:59:04,VALID,917.044,VALID,0,VALID,90.8787,VALID,0.107441,VALID,18.8853,VALID,5,VALID,0.926562,
2014-12-02, 01:00:04,VALID,917.075,VALID,0,VALID,90.8254,VALID,0,VALID,18.9257,VALID,355,VALID,0.527344,
2014-12-02, 01:01:04,VALID,917.06,VALID,0,VALID,90.9092,VALID,0,VALID,18.9243,VALID,19,VALID,1.28516,
2014-12-02, 01:02:04,VALID,917.061,VALID,0,VALID,91.0236,VALID,0,VALID,18.9034,VALID,10,VALID,0.701953,
2014-12-02, 01:03:04,VALID,917.051,VALID,0,VALID,91.1532,VALID,0,VALID,18.9048,VALID,4,VALID,0.0757812,
2014-12-02, 01:04:04,VALID,917.045,VALID,0,VALID,91.2828,VALID,0,VALID,18.8853,VALID,9,VALID,0.723437,
2014-12-02, 01:05:04,VALID,917.049,VALID,0,VALID,91.3819,VALID,0,VALID,18.8853,VALID,15,VALID,0.505859,
2014-12-02, 01:06:04,VALID,917.076,VALID,0,VALID,91.6106,VALID,0,VALID,18.8449,VALID,15,VALID,0.338281,
2014-12-02, 01:07:04,VALID,917.049,VALID,0,VALID,91.5191,VALID,0,VALID,18.8463,VALID,15,VALID,0,
2014-12-02, 01:08:04,VALID,917.049,VALID,0,VALID,91.6182,VALID,0.107441,VALID,18.8463,VALID,15,VALID,0.0273438,
2014-12-02, 01:09:04,VALID,917.012,VALID,0,VALID,91.3666,VALID,0,VALID,18.8073,VALID,15,VALID,0,
2014-12-02, 01:10:04,VALID,916.988,VALID,0,VALID,91.5344,VALID,0,VALID,18.8254,VALID,15,VALID,0,
2014-12-02, 01:11:04,VALID,916.979,VALID,0,VALID,91.6335,VALID,0.107441,VALID,18.8254,VALID,360,VALID,0,
2014-12-02, 01:12:04,VALID,916.967,VALID,0,VALID,91.4962,VALID,0,VALID,18.8268,VALID,351,VALID,0,
2014-12-02, 01:13:04,VALID,916.958,VALID,0,VALID,91.6716,VALID,0,VALID,18.8268,VALID,349,VALID,0,
2014-12-02, 01:14:04,VALID,916.975,VALID,0,VALID,91.5801,VALID,0,VALID,18.8268,VALID,307,VALID,0.401172,
2014-12-02, 01:15:04,VALID,916.954,VALID,0,VALID,91.6945,VALID,0,VALID,18.8463,VALID,279,VALID,0.467187,
2014-12-02, 01:16:04,VALID,916.97,VALID,0,VALID,91.7783,VALID,0,VALID,18.8254,VALID,325,VALID,0.417578,
2014-12-02, 01:17:04,VALID,916.974,VALID,0,VALID,91.8774,VALID,0,VALID,18.8268,VALID,325,VALID,0.623047,
2014-12-02, 01:18:04,VALID,916.947,VALID,0,VALID,91.7783,VALID,0,VALID,18.8073,VALID,325,VALID,0.0222656,
2014-12-02, 01:19:04,VALID,916.949,VALID,0,VALID,91.8774,VALID,0,VALID,18.7864,VALID,325,VALID,0,
2014-12-02, 01:20:04,VALID,916.947,VALID,0,VALID,92.0375,VALID,0,VALID,18.7864,VALID,325,VALID,0,
2014-12-02, 01:21:04,VALID,916.944,VALID,0,VALID,92.0756,VALID,0,VALID,18.7878,VALID,325,VALID,0,
2014-12-02, 01:22:04,VALID,916.902,VALID,0,VALID,91.9765,VALID,0,VALID,18.7669,VALID,326,VALID,0.742188,
2014-12-02, 01:23:04,VALID,916.909,VALID,0,VALID,92.0832,VALID,0.107441,VALID,18.7669,VALID,326,VALID,0.364844,
2014-12-02, 01:24:04,VALID,916.915,VALID,0,VALID,92.0756,VALID,0,VALID,18.7683,VALID,13,VALID,0.724609,
2014-12-02, 01:25:04,VALID,916.9,VALID,0,VALID,92.0299,VALID,0.107441,VALID,18.7864,VALID,318,VALID,0.607031,
2014-12-02, 01:26:04,VALID,916.909,VALID,0,VALID,92.0223,VALID,0.107441,VALID,18.7864,VALID,318,VALID,0.270703,
2014-12-02, 01:27:04,VALID,916.926,VALID,0,VALID,91.9765,VALID,0,VALID,18.8073,VALID,317,VALID,0.260156,
2014-12-02, 01:28:04,VALID,916.891,VALID,0,VALID,92.3958,VALID,0,VALID,18.8268,VALID,318,VALID,0,
2014-12-02, 01:29:04,VALID,916.876,VALID,0,VALID,92.2738,VALID,0,VALID,18.7864,VALID,332,VALID,0.192969,
2014-12-02, 01:30:04,VALID,916.866,VALID,0,VALID,91.8927,VALID,0,VALID,18.7878,VALID,358,VALID,1.11563,
2014-12-02, 01:31:04,VALID,916.815,VALID,0,VALID,92.1671,VALID,0,VALID,18.8268,VALID,18,VALID,0.809375,
2014-12-02, 01:32:04,VALID,916.843,VALID,0,VALID,92.007,VALID,0,VALID,18.8268,VALID,23,VALID,0.610937,
2014-12-02, 01:33:04,VALID,916.799,VALID,0,VALID,91.9994,VALID,0,VALID,18.8268,VALID,23,VALID,0.0570313,
2014-12-02, 01:34:04,VALID,916.792,VALID,0,VALID,92.2357,VALID,0,VALID,18.8254,VALID,23,VALID,0.178125,
2014-12-02, 01:35:04,VALID,916.785,VALID,0,VALID,92.3043,VALID,0,VALID,18.8059,VALID,23,VALID,0,
2014-12-02, 01:36:04,VALID,916.789,VALID,0,VALID,92.6855,VALID,0,VALID,18.8059,VALID,23,VALID,0,
2014-12-02, 01:37:04,VALID,916.782,VALID,0,VALID,92.9828,VALID,0,VALID,18.7878,VALID,23,VALID,0,
2014-12-02, 01:38:04,VALID,916.823,VALID,0,VALID,93.3792,VALID,0,VALID,18.7488,VALID,23,VALID,0,
2014-12-02, 01:39:04,VALID,916.825,VALID,0,VALID,94.0196,VALID,0,VALID,18.7293,VALID,1,VALID,0,
2014-12-02, 01:40:04,VALID,916.821,VALID,0,VALID,94.6218,VALID,0,VALID,18.6889,VALID,1,VALID,0,
2014-12-02, 01:41:04,VALID,916.796,VALID,0,VALID,94.7667,VALID,0,VALID,18.7098,VALID,344,VALID,0,
2014-12-02, 01:42:04,VALID,916.809,VALID,0,VALID,95.064,VALID,0,VALID,18.6889,VALID,344,VALID,0,
2014-12-02, 01:43:04,VALID,916.779,VALID,0,VALID,95.2165,VALID,0,VALID,18.7098,VALID,344,VALID,0,
2014-12-02, 01:44:04,VALID,916.775,VALID,0,VALID,95.3156,VALID,0,VALID,18.6708,VALID,344,VALID,0,
2014-12-02, 01:45:04,VALID,916.7,VALID,0,VALID,95.3384,VALID,0,VALID,18.6319,VALID,344,VALID,0,
2014-12-02, 01:46:04,VALID,916.678,VALID,0,VALID,95.2927,VALID,0,VALID,18.6124,VALID,344,VALID,0,
2014-12-02, 01:47:04,VALID,916.677,VALID,0,VALID,95.1174,VALID,0,VALID,18.6333,VALID,23,VALID,1.15859,
2014-12-02, 01:48:04,VALID,916.665,VALID,0,VALID,95.0792,VALID,0,VALID,18.6319,VALID,19,VALID,0.400781,
2014-12-02, 01:49:04,VALID,916.627,VALID,0,VALID,95.0411,VALID,0,VALID,18.6723,VALID,339,VALID,0.186328,
2014-12-02, 01:50:04,VALID,916.603,VALID,0,VALID,95.1707,VALID,0,VALID,18.6528,VALID,354,VALID,0.910547,
2014-12-02, 01:51:04,VALID,916.584,VALID,0,VALID,95.4604,VALID,0,VALID,18.6723,VALID,12,VALID,0.975,
2014-12-02, 01:52:04,VALID,916.577,VALID,0,VALID,95.7196,VALID,0,VALID,18.6528,VALID,13,VALID,0.622266,
2014-12-02, 01:53:04,VALID,916.558,VALID,0,VALID,95.8492,VALID,0,VALID,18.6138,VALID,14,VALID,0.573047,
2014-12-02, 01:54:04,VALID,916.523,VALID,0,VALID,95.8568,VALID,0,VALID,18.5748,VALID,354,VALID,0.754687,
2014-12-02, 01:55:04,VALID,916.531,VALID,0,VALID,95.8873,VALID,0,VALID,18.5748,VALID,294,VALID,0.786719,
2014-12-02, 01:56:04,VALID,916.523,VALID,0,VALID,95.7654,VALID,0,VALID,18.5748,VALID,265,VALID,0,
2014-12-02, 01:57:04,VALID,916.516,VALID,0,VALID,95.7425,VALID,0,VALID,18.5943,VALID,265,VALID,0,
2014-12-02, 01:58:04,VALID,916.479,VALID,0,VALID,95.7882,VALID,0,VALID,18.5943,VALID,357,VALID,0.00429688,
2014-12-02, 01:59:04,VALID,916.486,VALID,0,VALID,95.6891,VALID,0,VALID,18.5539,VALID,348,VALID,0,
2014-12-02, 02:00:04,VALID,916.483,VALID,0,VALID,95.6739,VALID,0,VALID,18.572,VALID,353,VALID,0,
2014-12-02, 02:01:04,VALID,916.472,VALID,0,VALID,95.6053,VALID,0.107441,VALID,18.5914,VALID,356,VALID,0,
2014-12-02, 02:02:04,VALID,916.482,VALID,0,VALID,95.5443,VALID,0.107441,VALID,18.572,VALID,8,VALID,0,
2014-12-02, 02:03:04,VALID,916.444,VALID,0,VALID,95.4299,VALID,0,VALID,18.572,VALID,22,VALID,0,
2014-12-02, 02:04:04,VALID,916.426,VALID,0,VALID,95.3537,VALID,0,VALID,18.5914,VALID,8,VALID,0.691406,
2014-12-02, 02:05:04,VALID,916.412,VALID,0,VALID,95.2698,VALID,0,VALID,18.572,VALID,2,VALID,0,
2014-12-02, 02:06:04,VALID,916.395,VALID,0,VALID,95.2012,VALID,0.107441,VALID,18.5525,VALID,6,VALID,0.749219,
2014-12-02, 02:07:04,VALID,916.377,VALID,0,VALID,95.0411,VALID,0,VALID,18.572,VALID,360,VALID,0.61875,
2014-12-02, 02:08:04,VALID,916.356,VALID,0,VALID,95.1174,VALID,0.107441,VALID,18.572,VALID,10,VALID,0.497266,
2014-12-02, 02:09:04,VALID,916.376,VALID,0,VALID,95.0335,VALID,0,VALID,18.572,VALID,6,VALID,0.009375,
2014-12-02, 02:10:04,VALID,916.39,VALID,0,VALID,94.9954,VALID,0,VALID,18.5511,VALID,359,VALID,0.733594,
2014-12-02, 02:11:04,VALID,916.401,VALID,0,VALID,94.9725,VALID,0,VALID,18.5525,VALID,358,VALID,0.147266,
2014-12-02, 02:12:04,VALID,916.333,VALID,0,VALID,94.7896,VALID,0.107441,VALID,18.572,VALID,358,VALID,0.608984,
2014-12-02, 02:13:04,VALID,916.333,VALID,0,VALID,95.0183,VALID,0,VALID,18.5929,VALID,6,VALID,0,
2014-12-02, 02:14:04,VALID,916.308,VALID,0,VALID,95.064,VALID,0,VALID,18.5734,VALID,5,VALID,0.393359,
2014-12-02, 02:15:04,VALID,916.266,VALID,0,VALID,95.0411,VALID,0,VALID,18.533,VALID,12,VALID,0.964844,
2014-12-02, 02:16:04,VALID,916.274,VALID,0,VALID,95.064,VALID,0.107441,VALID,18.5539,VALID,4,VALID,1.06211,
2014-12-02, 02:17:04,VALID,916.251,VALID,0,VALID,95.1631,VALID,0,VALID,18.533,VALID,14,VALID,0.905469,
2014-12-02, 02:18:04,VALID,916.256,VALID,0,VALID,95.3232,VALID,0,VALID,18.5135,VALID,351,VALID,0.877734,
2014-12-02, 02:19:04,VALID,916.212,VALID,0,VALID,95.3461,VALID,0.107441,VALID,18.494,VALID,358,VALID,0.603125,
2014-12-02, 02:20:04,VALID,916.186,VALID,0,VALID,95.4223,VALID,0.107441,VALID,18.494,VALID,14,VALID,0.502734,
2014-12-02, 02:21:04,VALID,916.135,VALID,0,VALID,95.3613,VALID,0,VALID,18.494,VALID,1,VALID,0.349609,
2014-12-02, 02:22:04,VALID,916.126,VALID,0,VALID,95.3308,VALID,0,VALID,18.5135,VALID,359,VALID,1.20039,
2014-12-02, 02:23:04,VALID,916.051,VALID,0,VALID,95.0106,VALID,0,VALID,18.533,VALID,360,VALID,0.636719,
2014-12-02, 02:24:04,VALID,916.07,VALID,0,VALID,94.6066,VALID,0,VALID,18.5929,VALID,351,VALID,0.446875,
2014-12-02, 02:25:04,VALID,916.039,VALID,0,VALID,94.3321,VALID,0.107441,VALID,18.5525,VALID,347,VALID,0.446094,
2014-12-02, 02:26:04,VALID,916.059,VALID,0,VALID,94.1416,VALID,0.107441,VALID,18.572,VALID,355,VALID,0.274219,
2014-12-02, 02:27:04,VALID,916.008,VALID,0,VALID,94.0501,VALID,0,VALID,18.5914,VALID,346,VALID,0.423438,
2014-12-02, 02:28:04,VALID,916.021,VALID,0,VALID,93.5546,VALID,0,VALID,18.5914,VALID,347,VALID,1.03789,
2014-12-02, 02:29:04,VALID,915.983,VALID,0,VALID,93.4402,VALID,0.107441,VALID,18.6109,VALID,346,VALID,0.0777344,
2014-12-02, 02:30:04,VALID,916.004,VALID,0,VALID,93.3716,VALID,0,VALID,18.6109,VALID,358,VALID,0,
2014-12-02, 02:31:04,VALID,916.004,VALID,0,VALID,93.4859,VALID,0,VALID,18.5914,VALID,343,VALID,0,
2014-12-02, 02:32:04,VALID,915.995,VALID,0,VALID,93.5393,VALID,0.107441,VALID,18.5914,VALID,348,VALID,0.0289063,
2014-12-02, 02:33:04,VALID,915.994,VALID,0,VALID,93.6994,VALID,0,VALID,18.5914,VALID,346,VALID,0.140234,
2014-12-02, 02:34:04,VALID,916.012,VALID,0,VALID,93.6232,VALID,0.107441,VALID,18.572,VALID,338,VALID,0,
2014-12-02, 02:35:05,VALID,916.009,VALID,0,VALID,93.4326,VALID,0.107441,VALID,18.6124,VALID,350,VALID,0.19375,
2014-12-02, 02:36:04,VALID,915.97,VALID,0,VALID,93.4859,VALID,0,VALID,18.6319,VALID,360,VALID,0,
2014-12-02, 02:37:04,VALID,915.981,VALID,0,VALID,93.5012,VALID,0,VALID,18.6109,VALID,360,VALID,0,
2014-12-02, 02:38:04,VALID,915.955,VALID,0,VALID,93.5241,VALID,0,VALID,18.6304,VALID,5,VALID,0,
2014-12-02, 02:39:04,VALID,915.945,VALID,0,VALID,93.5927,VALID,0,VALID,18.6109,INVALID,360,VALID,0,
2014-12-02, 02:40:05,VALID,915.955,VALID,0,VALID,93.303,VALID,0,VALID,18.5914,VALID,330,VALID,0,
2014-12-02, 02:41:05,VALID,915.888,VALID,0,VALID,93.181,VALID,0,VALID,18.6109,VALID,10,VALID,0,
2014-12-02, 02:42:05,VALID,915.873,VALID,0,VALID,93.4097,VALID,0.107441,VALID,18.6304,VALID,15,VALID,0,
2014-12-02, 02:43:05,VALID,915.889,VALID,0,VALID,93.4021,VALID,0,VALID,18.6319,VALID,12,VALID,0,
2014-12-02, 02:44:05,VALID,915.881,VALID,0,VALID,93.0667,VALID,0,VALID,18.6109,VALID,343,VALID,0,
2014-12-02, 02:45:05,VALID,915.852,VALID,0,VALID,93.0362,VALID,0,VALID,18.6319,VALID,344,VALID,0.476172,
2014-12-02, 02:46:05,VALID,915.842,VALID,0,VALID,93.181,VALID,0,VALID,18.6528,VALID,352,VALID,0.00195313,
2014-12-02, 02:47:05,VALID,915.824,VALID,0,VALID,93.0362,VALID,0,VALID,18.6124,VALID,328,VALID,1.69961,
2014-12-02, 02:48:05,VALID,915.781,VALID,0.2,VALID,92.9294,VALID,0,VALID,18.6124,VALID,6,VALID,1.19648,
2014-12-02, 02:49:05,VALID,915.776,VALID,0,VALID,93.0514,VALID,0,VALID,18.6319,VALID,344,VALID,0.860156,
2014-12-02, 02:50:05,VALID,915.784,VALID,0,VALID,92.7922,VALID,0,VALID,18.6333,VALID,311,VALID,0.39375,
2014-12-02, 02:51:05,VALID,915.781,VALID,0,VALID,92.7084,VALID,0,VALID,18.6319,VALID,333,VALID,0,
2014-12-02, 02:52:05,VALID,915.773,VALID,0,VALID,92.9523,VALID,0,VALID,18.6513,VALID,333,VALID,0,
2014-12-02, 02:53:05,VALID,915.747,VALID,0,VALID,93.3792,VALID,0,VALID,18.6319,VALID,15,VALID,0.0015625,
2014-12-02, 02:54:05,VALID,915.793,VALID,0,VALID,93.8595,VALID,0,VALID,18.6124,VALID,8,VALID,0,
2014-12-02, 02:55:05,VALID,915.794,VALID,0,VALID,94.5913,VALID,0,VALID,18.5734,VALID,353,VALID,0,
2014-12-02, 02:56:05,VALID,915.803,VALID,0,VALID,94.6218,VALID,0,VALID,18.5344,VALID,322,VALID,0,
2014-12-02, 02:57:05,VALID,915.83,VALID,0,VALID,95.0488,VALID,0,VALID,18.5344,VALID,325,VALID,0,
2014-12-02, 02:58:05,VALID,915.801,VALID,0,VALID,95.0488,VALID,0,VALID,18.4759,VALID,359,VALID,0.470703,
2014-12-02, 02:59:05,VALID,915.786,VALID,0,VALID,95.1555,VALID,0,VALID,18.4759,VALID,348,VALID,0.00742187,
2014-12-02, 03:00:05,VALID,915.805,VALID,0,VALID,95.0792,VALID,0.107441,VALID,18.455,VALID,321,VALID,0.113281,
2014-12-02, 03:01:05,VALID,915.834,VALID,0,VALID,95.1021,VALID,0,VALID,18.4954,VALID,329,VALID,0,
2014-12-02, 03:02:05,VALID,915.8,VALID,0,VALID,95.1479,VALID,0,VALID,18.4745,VALID,328,VALID,0,
2014-12-02, 03:03:05,VALID,915.805,VALID,0,VALID,95.2851,VALID,0,VALID,18.4954,VALID,2,VALID,0.706641,
2014-12-02, 03:04:05,VALID,915.811,VALID,0,VALID,95.2088,VALID,0,VALID,18.4759,VALID,354,VALID,1.33711,
2014-12-02, 03:05:05,VALID,915.795,VALID,0,VALID,95.2775,VALID,0,VALID,18.4745,VALID,358,VALID,0.000390625,
2014-12-02, 03:06:05,VALID,915.773,VALID,0,VALID,95.2622,VALID,0,VALID,18.5149,VALID,347,VALID,0,
2014-12-02, 03:07:05,VALID,915.792,VALID,0,VALID,95.2851,VALID,0,VALID,18.4954,VALID,9,VALID,0.344922,
2014-12-02, 03:08:05,VALID,915.787,VALID,0,VALID,95.1326,VALID,0,VALID,18.4954,VALID,333,VALID,0.710938,
2014-12-02, 03:09:05,VALID,915.799,VALID,0,VALID,95.064,VALID,0,VALID,18.4954,VALID,351,VALID,0,
2014-12-02, 03:10:05,VALID,915.773,VALID,0,VALID,95.1783,VALID,0,VALID,18.5344,VALID,351,VALID,0,
2014-12-02, 03:11:05,VALID,915.779,VALID,0,VALID,95.2088,VALID,0,VALID,18.4954,VALID,350,VALID,0.920313,
2014-12-02, 03:12:05,VALID,915.762,VALID,0,VALID,95.2012,VALID,0,VALID,18.4745,VALID,5,VALID,0.780469,
2014-12-02, 03:13:05,VALID,915.776,VALID,0,VALID,95.0869,VALID,0,VALID,18.494,VALID,3,VALID,1.01055,
2014-12-02, 03:14:05,VALID,915.801,VALID,0,VALID,94.9039,VALID,0,VALID,18.5149,VALID,347,VALID,1.30195,
2014-12-02, 03:15:05,VALID,915.77,VALID,0,VALID,94.8582,VALID,0,VALID,18.5539,VALID,335,VALID,0.00195313,
2014-12-02, 03:16:05,VALID,915.783,VALID,0,VALID,94.416,VALID,0,VALID,18.5344,VALID,344,VALID,0.409766,
2014-12-02, 03:17:05,VALID,915.794,VALID,0,VALID,94.2026,VALID,0,VALID,18.5539,VALID,347,VALID,0,
2014-12-02, 03:18:05,VALID,915.788,VALID,0,VALID,94.2635,VALID,0,VALID,18.5539,VALID,350,VALID,0,
2014-12-02, 03:19:05,VALID,915.761,VALID,0,VALID,94.4846,VALID,0,VALID,18.5734,VALID,348,VALID,0,
2014-12-02, 03:20:05,VALID,915.75,VALID,0,VALID,94.8505,VALID,0,VALID,18.5734,VALID,295,VALID,0,
2014-12-02, 03:21:05,VALID,915.777,VALID,0,VALID,95.0945,VALID,0,VALID,18.533,VALID,274,VALID,0,
2014-12-02, 03:22:05,VALID,915.786,VALID,0,VALID,95.3308,VALID,0,VALID,18.5135,VALID,274,VALID,0,
2014-12-02, 03:23:05,VALID,915.807,VALID,0,VALID,95.5214,VALID,0,VALID,18.494,VALID,274,VALID,0,
2014-12-02, 03:24:05,VALID,915.797,VALID,0,VALID,95.6662,VALID,0.107441,VALID,18.4954,VALID,274,VALID,0,
2014-12-02, 03:25:05,VALID,915.813,VALID,0,VALID,95.7577,VALID,0.107441,VALID,18.455,VALID,274,VALID,0,
2014-12-02, 03:26:05,VALID,915.798,VALID,0,VALID,95.8797,VALID,0.107441,VALID,18.4369,VALID,274,VALID,0,
2014-12-02, 03:27:05,VALID,915.8,VALID,0,VALID,95.9483,VALID,0,VALID,18.4174,VALID,274,VALID,0,
2014-12-02, 03:28:05,VALID,915.785,VALID,0,VALID,96.0398,VALID,0,VALID,18.4369,VALID,274,VALID,0,
2014-12-02, 03:29:05,VALID,915.791,VALID,0,VALID,96.116,VALID,0.107441,VALID,18.4355,VALID,274,VALID,0,
2014-12-02, 03:30:05,VALID,915.789,VALID,0,VALID,96.1389,VALID,0,VALID,18.4369,VALID,275,VALID,0,
2014-12-02, 03:31:05,VALID,915.79,VALID,0,VALID,96.0779,VALID,0,VALID,18.4369,VALID,309,VALID,0,
2014-12-02, 03:32:05,VALID,915.816,VALID,0,VALID,95.9483,VALID,0,VALID,18.4355,VALID,343,VALID,0,
2014-12-02, 03:33:05,VALID,915.839,VALID,0,VALID,95.9178,VALID,0,VALID,18.4954,VALID,343,VALID,0,
2014-12-02, 03:34:05,VALID,915.858,VALID,0,VALID,95.8111,VALID,0,VALID,18.4745,VALID,343,VALID,0,
2014-12-02, 03:35:05,VALID,915.856,VALID,0,VALID,95.6662,VALID,0,VALID,18.4745,VALID,343,VALID,0,
2014-12-02, 03:36:05,VALID,915.896,VALID,0,VALID,95.5138,VALID,0,VALID,18.4745,VALID,343,VALID,0,
2014-12-02, 03:37:05,VALID,915.915,VALID,0,VALID,95.4223,VALID,0,VALID,18.5344,VALID,343,VALID,0,
2014-12-02, 03:38:05,VALID,915.895,VALID,0,VALID,95.3156,VALID,0.107441,VALID,18.5344,VALID,343,VALID,0,
2014-12-02, 03:39:05,VALID,915.95,VALID,0,VALID,95.1097,VALID,0,VALID,18.5539,INVALID,360,VALID,0,
2014-12-02, 03:40:05,VALID,915.965,VALID,0,VALID,95.1707,VALID,0.107441,VALID,18.572,VALID,332,VALID,0,
2014-12-02, 03:41:05,VALID,915.929,VALID,0,VALID,94.6523,VALID,0,VALID,18.5929,VALID,335,VALID,0,
2014-12-02, 03:42:05,VALID,915.976,VALID,0,VALID,94.1949,VALID,0,VALID,18.6124,VALID,332,VALID,0,
2014-12-02, 03:43:05,VALID,915.975,VALID,0,VALID,94.2407,VALID,0,VALID,18.5914,VALID,355,VALID,0,
2014-12-02, 03:44:05,VALID,915.975,VALID,0,VALID,94.4846,VALID,0,VALID,18.6124,VALID,342,VALID,0,
2014-12-02, 03:45:05,VALID,916.007,VALID,0,VALID,94.2635,VALID,0.107441,VALID,18.5929,VALID,356,VALID,0.192188,
2014-12-02, 03:46:05,VALID,915.987,VALID,0,VALID,94.1339,VALID,0,VALID,18.6138,INVALID,360,VALID,0,
2014-12-02, 03:47:05,VALID,916.016,VALID,0,VALID,93.9738,VALID,0,VALID,18.5943,VALID,342,VALID,0,
2014-12-02, 03:48:05,VALID,916.006,VALID,0,VALID,94.1797,VALID,0,VALID,18.6333,VALID,344,VALID,0,